| time (UTC) | temp C | wind direction | speed KPH | gust KPH | rain 1hr cm | rain 24hr cm | rain mn cm | humidity % | barometer mb |
| 20260506082058 | 21 | 135 | 1.6 | 4.8 | 0.00 | 0.00 | 0.00 | 31 | 1007.0 |
| 20260506081558 | 21 | 135 | 1.6 | 3.2 | 0.00 | 0.00 | 0.00 | 31 | 1007.2 |
| 20260506081157 | 21 | 135 | 1.6 | 3.2 | 0.00 | 0.00 | 0.00 | 31 | 1007.2 |
| 20260506080658 | 21 | 135 | 1.6 | 3.2 | 0.00 | 0.00 | 0.00 | 31 | 1007.1 |
| 20260506073105 | 21 | 135 | 1.6 | 6.4 | 0.00 | 0.00 | 0.00 | 28 | 1007.2 |
| 20260506072558 | 21 | 135 | 1.6 | 6.4 | 0.00 | 0.00 | 0.00 | 27 | 1007.2 |
| 20260506072058 | 22 | 149 | 3.2 | 4.8 | 0.00 | 0.00 | 0.00 | 27 | 1007.8 |
| 20260506071558 | 21 | 224 | 0.0 | 3.2 | 0.00 | 0.00 | 0.00 | 27 | 1007.9 |
| 20260506071057 | 21 | 224 | 0.0 | 3.2 | 0.00 | 0.00 | 0.00 | 27 | 1007.8 |
| 20260506070658 | 22 | 224 | 0.0 | 4.8 | 0.00 | 0.00 | 0.00 | 27 | 1007.7 |
| 20260506062055 | 21 | 195 | 3.2 | 6.4 | 0.00 | 0.00 | 0.00 | 30 | 1007.2 |
| 20260506061557 | 21 | 195 | 1.6 | 8.0 | 0.00 | 0.00 | 0.00 | 29 | 1007.3 |
| 20260506061154 | 21 | 195 | 4.8 | 8.0 | 0.00 | 0.00 | 0.00 | 29 | 1007.6 |
| 20260506060653 | 21 | 191 | 4.8 | 8.0 | 0.00 | 0.00 | 0.00 | 29 | 1007.2 |
| 20260506051152 | 21 | 190 | 0.0 | 6.4 | 0.00 | 0.00 | 0.00 | 30 | 1007.4 |
| 20260506050653 | 21 | 193 | 0.0 | 3.2 | 0.00 | 0.00 | 0.00 | 30 | 1007.5 |
| 20260506045050 | 21 | 193 | 1.6 | 3.2 | 0.00 | 0.00 | 0.00 | 28 | 1006.8 |
| 20260506044553 | 21 | 193 | 1.6 | 3.2 | 0.00 | 0.00 | 0.00 | 28 | 1007.1 |
| 20260506044050 | 22 | 193 | 0.0 | 0.0 | 0.00 | 0.00 | 0.00 | 29 | 1007.1 |
| 20260506043650 | 22 | 193 | 0.0 | 0.0 | 0.00 | 0.00 | 0.00 | 29 | 1007.1 |
| 20260506043050 | 22 | 193 | 0.0 | 0.0 | 0.00 | 0.00 | 0.00 | 28 | 1007.0 |
| 20260506042550 | 22 | 193 | 0.0 | 0.0 | 0.00 | 0.00 | 0.00 | 28 | 1007.0 |
| 20260506042051 | 22 | 193 | 0.0 | 0.0 | 0.00 | 0.00 | 0.00 | 27 | 1007.0 |
| 20260506041550 | 22 | 193 | 0.0 | 4.8 | 0.00 | 0.00 | 0.00 | 27 | 1006.9 |
| 20260506041049 | 22 | 193 | 1.6 | 4.8 | 0.00 | 0.00 | 0.00 | 28 | 1007.3 |
| 20260506040649 | 22 | 141 | 1.6 | 4.8 | 0.00 | 0.00 | 0.00 | 28 | 1007.3 |
| 20260506040059 | 22 | 141 | 1.6 | 4.8 | 0.00 | 0.00 | 0.00 | 28 | 1006.7 |
| 20260506035551 | 22 | 139 | 3.2 | 4.8 | 0.00 | 0.00 | 0.00 | 27 | 1006.9 |
| 20260506035050 | 22 | 135 | 3.2 | 4.8 | 0.00 | 0.00 | 0.00 | 26 | 1006.9 |
| 20260506034603 | 22 | 134 | 0.0 | 3.2 | 0.00 | 0.00 | 0.00 | 26 | 1006.8 |
| 20260506034049 | 22 | 134 | 0.0 | 3.2 | 0.00 | 0.00 | 0.00 | 27 | 1006.7 |
| 20260506033549 | 22 | 133 | 1.6 | 3.2 | 0.00 | 0.00 | 0.00 | 26 | 1006.7 |
| 20260506033049 | 22 | 133 | 0.0 | 4.8 | 0.00 | 0.00 | 0.00 | 26 | 1006.6 |
| 20260506032549 | 23 | 133 | 1.6 | 4.8 | 0.00 | 0.00 | 0.00 | 25 | 1006.6 |
| 20260506032051 | 23 | 134 | 1.6 | 3.2 | 0.00 | 0.00 | 0.00 | 25 | 1006.5 |
| 20260506031558 | 23 | 135 | 0.0 | 3.2 | 0.00 | 0.00 | 0.00 | 24 | 1006.5 |
| 20260506031054 | 23 | 135 | 0.0 | 3.2 | 0.00 | 0.00 | 0.00 | 23 | 1006.4 |
| 20260506030549 | 23 | 135 | 1.6 | 4.8 | 0.00 | 0.00 | 0.00 | 23 | 1006.5 |
| 20260506030048 | 23 | 135 | 1.6 | 4.8 | 0.00 | 0.00 | 0.00 | 22 | 1006.5 |
| 20260506025548 | 23 | 135 | 0.0 | 3.2 | 0.00 | 0.00 | 0.00 | 23 | 1006.3 |
| 20260506025048 | 24 | 135 | 0.0 | 3.2 | 0.00 | 0.00 | 0.00 | 23 | 1006.5 |
| 20260506024548 | 24 | 135 | 1.6 | 3.2 | 0.00 | 0.00 | 0.00 | 22 | 1006.4 |
| 20260506024048 | 25 | 135 | 1.6 | 3.2 | 0.00 | 0.00 | 0.00 | 21 | 1006.4 |
| 20260506023549 | 25 | 135 | 0.0 | 8.0 | 0.00 | 0.00 | 0.00 | 20 | 1006.5 |
| 20260506023048 | 25 | 135 | 3.2 | 8.0 | 0.00 | 0.00 | 0.00 | 20 | 1006.4 |
| 20260506022547 | 25 | 351 | 0.0 | 3.2 | 0.00 | 0.00 | 0.00 | 18 | 1006.2 |
| 20260506022046 | 25 | 351 | 0.0 | 4.8 | 0.00 | 0.00 | 0.00 | 17 | 1006.2 |
| 20260506021550 | 25 | 351 | 0.0 | 4.8 | 0.00 | 0.00 | 0.00 | 17 | 1006.0 |
| 20260506021047 | 26 | 351 | 1.6 | 4.8 | 0.00 | 0.00 | 0.00 | 17 | 1006.1 |
| 20260506020645 | 26 | 351 | 0.0 | 3.2 | 0.00 | 0.00 | 0.00 | 17 | 1006.1 |
| 20260506020047 | 26 | 351 | 0.0 | 3.2 | 0.00 | 0.00 | 0.00 | 16 | 1006.2 |
| 20260506015548 | 26 | 351 | 1.6 | 3.2 | 0.00 | 0.00 | 0.00 | 15 | 1006.2 |
| 20260506015048 | 26 | 351 | 1.6 | 4.8 | 0.00 | 0.00 | 0.00 | 15 | 1005.9 |
| 20260506014546 | 27 | 351 | 1.6 | 6.4 | 0.00 | 0.00 | 0.00 | 14 | 1005.8 |
| 20260506014050 | 27 | 351 | 1.6 | 6.4 | 0.00 | 0.00 | 0.00 | 13 | 1006.0 |
| 20260506013546 | 27 | 349 | 1.6 | 6.4 | 0.00 | 0.00 | 0.00 | 13 | 1006.0 |
| 20260506013047 | 27 | 358 | 3.2 | 8.0 | 0.00 | 0.00 | 0.00 | 13 | 1005.9 |
| 20260506012546 | 27 | 352 | 3.2 | 9.7 | 0.00 | 0.00 | 0.00 | 12 | 1005.9 |
| 20260506012046 | 27 | 341 | 4.8 | 8.0 | 0.00 | 0.00 | 0.00 | 12 | 1006.0 |
| 20260506011545 | 27 | 360 | 4.8 | 8.0 | 0.00 | 0.00 | 0.00 | 12 | 1005.9 |
| 20260506011045 | 28 | 358 | 3.2 | 9.7 | 0.00 | 0.00 | 0.00 | 11 | 1005.8 |
| 20260506010645 | 28 | 5 | 4.8 | 9.7 | 0.00 | 0.00 | 0.00 | 11 | 1005.7 |
| 20260506010045 | 28 | 4 | 4.8 | 9.7 | 0.00 | 0.00 | 0.00 | 11 | 1005.7 |
| 20260506005543 | 28 | 17 | 4.8 | 12.9 | 0.00 | 0.00 | 0.00 | 11 | 1005.5 |
| 20260506005043 | 28 | 335 | 4.8 | 16.1 | 0.00 | 0.00 | 0.00 | 10 | 1005.5 |
| 20260506004542 | 28 | 355 | 8.0 | 16.1 | 0.00 | 0.00 | 0.00 | 10 | 1005.4 |
| 20260506004042 | 29 | 353 | 6.4 | 24.1 | 0.00 | 0.00 | 0.00 | 10 | 1005.3 |
| 20260506003543 | 29 | 348 | 9.7 | 24.1 | 0.00 | 0.00 | 0.00 | 9 | 1005.3 |
| 20260506003043 | 29 | 9 | 8.0 | 19.3 | 0.00 | 0.00 | 0.00 | 9 | 1005.2 |
| 20260506002542 | 30 | 343 | 8.0 | 20.9 | 0.00 | 0.00 | 0.00 | 9 | 1005.2 |
| 20260506002042 | 30 | 7 | 11.3 | 20.9 | 0.00 | 0.00 | 0.00 | 9 | 1005.2 |
| 20260506001542 | 30 | 32 | 8.0 | 19.3 | 0.00 | 0.00 | 0.00 | 8 | 1005.1 |
| 20260506001041 | 31 | 27 | 9.7 | 24.1 | 0.00 | 0.00 | 0.00 | 7 | 1005.1 |
| 20260506000644 | 31 | 330 | 6.4 | 16.1 | 0.00 | 0.00 | 0.00 | 9 | 1005.0 |
| 20260506000042 | 31 | 349 | 8.0 | 16.1 | 0.00 | 0.00 | 0.00 | 9 | 1005.0 |
| 20260505235541 | 31 | 353 | 4.8 | 14.5 | 0.00 | 0.00 | 0.00 | 11 | 1005.1 |
| 20260505235041 | 31 | 20 | 3.2 | 16.1 | 0.00 | 0.00 | 0.00 | 11 | 1005.1 |
| 20260505234547 | 31 | 10 | 8.0 | 17.7 | 0.00 | 0.00 | 0.00 | 11 | 1005.1 |
| 20260505234144 | 31 | 13 | 9.7 | 19.3 | 0.00 | 0.00 | 0.00 | 10 | 1005.1 |
| 20260505233540 | 31 | 356 | 6.4 | 16.1 | 0.00 | 0.00 | 0.00 | 11 | 1005.0 |
| 20260505233042 | 31 | 356 | 8.0 | 16.1 | 0.00 | 0.00 | 0.00 | 10 | 1004.7 |
| 20260505232540 | 31 | 342 | 9.7 | 17.7 | 0.00 | 0.00 | 0.00 | 10 | 1004.9 |
| 20260505232041 | 31 | 347 | 8.0 | 17.7 | 0.00 | 0.00 | 0.00 | 10 | 1004.9 |
| 20260505231547 | 31 | 2 | 8.0 | 16.1 | 0.00 | 0.00 | 0.00 | 10 | 1005.0 |
| 20260505231039 | 31 | 336 | 6.4 | 16.1 | 0.00 | 0.00 | 0.00 | 9 | 1004.9 |
| 20260505230639 | 32 | 10 | 4.8 | 16.1 | 0.00 | 0.00 | 0.00 | 10 | 1005.0 |
| 20260505230039 | 32 | 325 | 8.0 | 16.1 | 0.00 | 0.00 | 0.00 | 9 | 1005.0 |
| 20260505225539 | 32 | 5 | 6.4 | 22.5 | 0.00 | 0.00 | 0.00 | 10 | 1004.9 |
| 20260505225040 | 32 | 5 | 4.8 | 22.5 | 0.00 | 0.00 | 0.00 | 9 | 1005.1 |
| 20260505224538 | 32 | 2 | 6.4 | 16.1 | 0.00 | 0.00 | 0.00 | 9 | 1005.0 |
| 20260505224038 | 32 | 313 | 9.7 | 19.3 | 0.00 | 0.00 | 0.00 | 9 | 1005.0 |
| 20260505223538 | 32 | 316 | 9.7 | 20.9 | 0.00 | 0.00 | 0.00 | 9 | 1005.0 |
| 20260505223048 | 32 | 295 | 8.0 | 20.9 | 0.00 | 0.00 | 0.00 | 8 | 1005.1 |
| 20260505222537 | 32 | 35 | 9.7 | 20.9 | 0.00 | 0.00 | 0.00 | 9 | 1005.2 |
| 20260505222038 | 32 | 336 | 4.8 | 17.7 | 0.00 | 0.00 | 0.00 | 8 | 1005.1 |
| 20260505221537 | 32 | 325 | 9.7 | 22.5 | 0.00 | 0.00 | 0.00 | 9 | 1005.1 |
| 20260505221036 | 32 | 2 | 11.3 | 22.5 | 0.00 | 0.00 | 0.00 | 8 | 1005.1 |
| 20260505220637 | 32 | 29 | 8.0 | 22.5 | 0.00 | 0.00 | 0.00 | 8 | 1005.1 |
| 20260505220042 | 32 | 321 | 9.7 | 22.5 | 0.00 | 0.00 | 0.00 | 8 | 1005.3 |
| 20260505215538 | 32 | 325 | 12.9 | 22.5 | 0.00 | 0.00 | 0.00 | 8 | 1005.4 |
| 20260505215038 | 33 | 360 | 9.7 | 25.7 | 0.00 | 0.00 | 0.00 | 8 | 1005.4 |
| 20260505214547 | 33 | 345 | 9.7 | 25.7 | 0.00 | 0.00 | 0.00 | 7 | 1005.5 |
| 20260505214037 | 33 | 306 | 11.3 | 24.1 | 0.00 | 0.00 | 0.00 | 8 | 1005.5 |
| 20260505213536 | 32 | 358 | 6.4 | 22.5 | 0.00 | 0.00 | 0.00 | 8 | 1005.6 |
| 20260505213038 | 32 | 323 | 14.5 | 25.7 | 0.00 | 0.00 | 0.00 | 8 | 1005.7 |
| 20260505212536 | 33 | 304 | 12.9 | 24.1 | 0.00 | 0.00 | 0.00 | 8 | 1005.6 |
| 20260505212035 | 33 | 351 | 9.7 | 24.1 | 0.00 | 0.00 | 0.00 | 8 | 1005.8 |
| 20260505211536 | 33 | 339 | 11.3 | 22.5 | 0.00 | 0.00 | 0.00 | 8 | 1005.8 |
| 20260505211038 | 33 | 338 | 11.3 | 30.6 | 0.00 | 0.00 | 0.00 | 7 | 1005.8 |
| 20260505210635 | 33 | 358 | 11.3 | 30.6 | 0.00 | 0.00 | 0.00 | 8 | 1005.8 |
| 20260505210034 | 33 | 340 | 12.9 | 30.6 | 0.00 | 0.00 | 0.00 | 8 | 1005.9 |
| 20260505205533 | 33 | 310 | 11.3 | 22.5 | 0.00 | 0.00 | 0.00 | 8 | 1005.8 |
| 20260505205032 | 33 | 331 | 9.7 | 24.1 | 0.00 | 0.00 | 0.00 | 8 | 1005.9 |
| 20260505204535 | 32 | 337 | 11.3 | 24.1 | 0.00 | 0.00 | 0.00 | 9 | 1006.0 |
| 20260505204030 | 32 | 2 | 9.7 | 20.9 | 0.00 | 0.00 | 0.00 | 9 | 1006.1 |
| 20260505203530 | 32 | 264 | 12.9 | 22.5 | 0.00 | 0.00 | 0.00 | 9 | 1006.0 |
| 20260505203032 | 32 | 312 | 9.7 | 22.5 | 0.00 | 0.00 | 0.00 | 8 | 1006.2 |
| 20260505202530 | 33 | 338 | 11.3 | 24.1 | 0.00 | 0.00 | 0.00 | 8 | 1006.2 |
| 20260505202030 | 33 | 328 | 14.5 | 20.9 | 0.00 | 0.00 | 0.00 | 8 | 1006.2 |
| 20260505201528 | 33 | 329 | 9.7 | 22.5 | 0.00 | 0.00 | 0.00 | 8 | 1006.2 |
| 20260505201029 | 32 | 316 | 12.9 | 29.0 | 0.00 | 0.00 | 0.00 | 9 | 1006.3 |
| 20260505200629 | 32 | 336 | 12.9 | 29.0 | 0.00 | 0.00 | 0.00 | 9 | 1006.4 |
| 20260505200040 | 32 | 344 | 14.5 | 29.0 | 0.00 | 0.00 | 0.00 | 8 | 1006.4 |
| 20260505195534 | 32 | 306 | 12.9 | 29.0 | 0.00 | 0.00 | 0.00 | 8 | 1006.4 |
| 20260505195031 | 32 | 308 | 14.5 | 20.9 | 0.00 | 0.00 | 0.00 | 8 | 1006.5 |
| 20260505194529 | 32 | 309 | 9.7 | 19.3 | 0.00 | 0.00 | 0.00 | 9 | 1006.5 |
| 20260505194029 | 32 | 338 | 12.9 | 27.4 | 0.00 | 0.00 | 0.00 | 9 | 1006.5 |
| 20260505193529 | 32 | 290 | 9.7 | 29.0 | 0.00 | 0.00 | 0.00 | 9 | 1006.5 |
| 20260505193030 | 32 | 12 | 12.9 | 29.0 | 0.00 | 0.00 | 0.00 | 9 | 1006.5 |
| 20260505192531 | 32 | 334 | 14.5 | 29.0 | 0.00 | 0.00 | 0.00 | 9 | 1006.5 |
| 20260505192028 | 32 | 309 | 17.7 | 30.6 | 0.00 | 0.00 | 0.00 | 9 | 1006.6 |
| 20260505191528 | 32 | 281 | 11.3 | 30.6 | 0.00 | 0.00 | 0.00 | 9 | 1006.7 |
| 20260505191028 | 32 | 327 | 16.1 | 30.6 | 0.00 | 0.00 | 0.00 | 9 | 1006.7 |
| 20260505190627 | 32 | 309 | 12.9 | 22.5 | 0.00 | 0.00 | 0.00 | 9 | 1006.9 |
| 20260505190031 | 32 | 327 | 11.3 | 22.5 | 0.00 | 0.00 | 0.00 | 9 | 1006.9 |
| 20260505185623 | 31 | 351 | 11.3 | 22.5 | 0.00 | 0.00 | 0.00 | 10 | 1006.8 |
| 20260505185023 | 31 | 324 | 12.9 | 27.4 | 0.00 | 0.00 | 0.00 | 9 | 1006.8 |
| 20260505184523 | 31 | 284 | 12.9 | 35.4 | 0.00 | 0.00 | 0.00 | 9 | 1006.9 |
| 20260505184023 | 31 | 340 | 14.5 | 35.4 | 0.00 | 0.00 | 0.00 | 9 | 1007.0 |
| 20260505183521 | 32 | 320 | 11.3 | 25.7 | 0.00 | 0.00 | 0.00 | 9 | 1007.1 |
| 20260505183021 | 32 | 330 | 11.3 | 24.1 | 0.00 | 0.00 | 0.00 | 9 | 1007.1 |
| 20260505182521 | 32 | 38 | 9.7 | 25.7 | 0.00 | 0.00 | 0.00 | 9 | 1007.2 |
| 20260505182022 | 31 | 344 | 8.0 | 25.7 | 0.00 | 0.00 | 0.00 | 10 | 1007.3 |
| 20260505181521 | 31 | 299 | 12.9 | 32.2 | 0.00 | 0.00 | 0.00 | 10 | 1007.5 |
| 20260505181021 | 31 | 286 | 14.5 | 32.2 | 0.00 | 0.00 | 0.00 | 9 | 1007.5 |
| 20260505180619 | 31 | 344 | 9.7 | 22.5 | 0.00 | 0.00 | 0.00 | 10 | 1007.5 |
| 20260505180022 | 31 | 319 | 9.7 | 22.5 | 0.00 | 0.00 | 0.00 | 10 | 1007.7 |
| 20260505175522 | 31 | 336 | 14.5 | 25.7 | 0.00 | 0.00 | 0.00 | 10 | 1007.6 |
| 20260505175021 | 31 | 327 | 8.0 | 30.6 | 0.00 | 0.00 | 0.00 | 11 | 1007.6 |
| 20260505174521 | 31 | 318 | 9.7 | 30.6 | 0.00 | 0.00 | 0.00 | 10 | 1007.7 |
| 20260505174021 | 31 | 342 | 11.3 | 30.6 | 0.00 | 0.00 | 0.00 | 11 | 1007.6 |
| 20260505173521 | 31 | 343 | 17.7 | 30.6 | 0.00 | 0.00 | 0.00 | 11 | 1007.7 |
| 20260505173019 | 31 | 19 | 6.4 | 20.9 | 0.00 | 0.00 | 0.00 | 12 | 1007.7 |
| 20260505172520 | 31 | 333 | 11.3 | 22.5 | 0.00 | 0.00 | 0.00 | 12 | 1007.8 |
| 20260505172019 | 30 | 348 | 6.4 | 17.7 | 0.00 | 0.00 | 0.00 | 15 | 1007.8 |
| 20260505171522 | 30 | 334 | 9.7 | 17.7 | 0.00 | 0.00 | 0.00 | 15 | 1007.9 |
| 20260505171016 | 30 | 346 | 9.7 | 14.5 | 0.00 | 0.00 | 0.00 | 17 | 1007.7 |
| 20260505170516 | 30 | 346 | 9.7 | 14.5 | 0.00 | 0.00 | 0.00 | 17 | 1007.9 |
| 20260505170017 | 30 | 351 | 9.7 | 14.5 | 0.00 | 0.00 | 0.00 | 17 | 1008.0 |
| 20260505165512 | 29 | 27 | 8.0 | 16.1 | 0.00 | 0.00 | 0.00 | 21 | 1008.0 |
| 20260505165013 | 29 | 335 | 4.8 | 16.1 | 0.00 | 0.00 | 0.00 | 23 | 1008.0 |
| 20260505164509 | 28 | 346 | 6.4 | 16.1 | 0.00 | 0.00 | 0.00 | 21 | 1008.0 |
| 20260505164008 | 28 | 353 | 6.4 | 20.9 | 0.00 | 0.00 | 0.00 | 23 | 1008.0 |
| 20260505163509 | 28 | 354 | 4.8 | 20.9 | 0.00 | 0.00 | 0.00 | 26 | 1007.9 |
| 20260505163009 | 28 | 341 | 6.4 | 16.1 | 0.00 | 0.00 | 0.00 | 25 | 1007.9 |
| 20260505162505 | 28 | 338 | 8.0 | 17.7 | 0.00 | 0.00 | 0.00 | 24 | 1007.9 |
| 20260505162004 | 27 | 313 | 8.0 | 17.7 | 0.00 | 0.00 | 0.00 | 27 | 1008.0 |
| 20260505161503 | 27 | 342 | 4.8 | 11.3 | 0.00 | 0.00 | 0.00 | 35 | 1007.9 |
| 20260505161001 | 26 | 24 | 0.0 | 6.4 | 0.00 | 0.00 | 0.00 | 40 | 1008.0 |
| 20260505160601 | 25 | 175 | 0.0 | 4.8 | 0.00 | 0.00 | 0.00 | 43 | 1007.9 |
| 20260505153058 | 23 | 144 | 3.2 | 8.0 | 0.00 | 0.00 | 0.00 | 54 | 1007.9 |
| 20260505152557 | 23 | 117 | 1.6 | 8.0 | 0.00 | 0.00 | 0.00 | 55 | 1007.9 |
| 20260505152055 | 23 | 165 | 4.8 | 9.7 | 0.00 | 0.00 | 0.00 | 55 | 1007.9 |
| 20260505151555 | 23 | 202 | 6.4 | 11.3 | 0.00 | 0.00 | 0.00 | 54 | 1008.0 |
| 20260505151057 | 23 | 214 | 3.2 | 9.7 | 0.00 | 0.00 | 0.00 | 53 | 1007.9 |
| 20260505150553 | 22 | 193 | 1.6 | 8.0 | 0.00 | 0.00 | 0.00 | 55 | 1007.8 |
| 20260505140539 | 20 | 174 | 3.2 | 6.4 | 0.00 | 0.00 | 0.00 | 62 | 1007.9 |
| 20260505125029 | 18 | 196 | 0.0 | 1.6 | 0.00 | 0.00 | 0.00 | 64 | 1007.1 |
| 20260505124530 | 18 | 196 | 0.0 | 1.6 | 0.00 | 0.00 | 0.00 | 64 | 1007.0 |
| 20260505124027 | 18 | 196 | 0.0 | 1.6 | 0.00 | 0.00 | 0.00 | 64 | 1006.9 |
| 20260505123530 | 18 | 196 | 0.0 | 1.6 | 0.00 | 0.00 | 0.00 | 65 | 1006.8 |
| 20260505123026 | 18 | 196 | 0.0 | 3.2 | 0.00 | 0.00 | 0.00 | 64 | 1006.7 |
| 20260505122526 | 18 | 196 | 0.0 | 4.8 | 0.00 | 0.00 | 0.00 | 64 | 1006.6 |
| 20260505122028 | 18 | 231 | 1.6 | 4.8 | 0.00 | 0.00 | 0.00 | 64 | 1006.5 |
| 20260505121526 | 18 | 269 | 0.0 | 1.6 | 0.00 | 0.00 | 0.00 | 64 | 1006.5 |
| 20260505121025 | 18 | 270 | 0.0 | 1.6 | 0.00 | 0.00 | 0.00 | 64 | 1006.6 |
| 20260505120525 | 18 | 270 | 0.0 | 0.0 | 0.00 | 0.00 | 0.00 | 64 | 1006.5 |
| 20260505115527 | 18 | 270 | 0.0 | 1.6 | 0.00 | 0.00 | 0.00 | 64 | 1006.4 |
| 20260505115027 | 18 | 271 | 0.0 | 1.6 | 0.00 | 0.00 | 0.00 | 64 | 1006.4 |
| 20260505114527 | 18 | 275 | 0.0 | 3.2 | 0.00 | 0.00 | 0.00 | 64 | 1006.4 |
| 20260505114027 | 18 | 277 | 0.0 | 3.2 | 0.00 | 0.00 | 0.00 | 65 | 1006.3 |
| 20260505113525 | 18 | 279 | 0.0 | 1.6 | 0.00 | 0.00 | 0.00 | 64 | 1006.3 |
| 20260505113025 | 18 | 278 | 0.0 | 0.0 | 0.00 | 0.00 | 0.00 | 64 | 1006.3 |
| 20260505112525 | 18 | 271 | 0.0 | 0.0 | 0.00 | 0.00 | 0.00 | 64 | 1006.4 |
| 20260505112025 | 18 | 270 | 0.0 | 3.2 | 0.00 | 0.00 | 0.00 | 64 | 1006.4 |
| 20260505111533 | 18 | 269 | 0.0 | 3.2 | 0.00 | 0.00 | 0.00 | 63 | 1006.4 |
| 20260505111023 | 18 | 269 | 0.0 | 3.2 | 0.00 | 0.00 | 0.00 | 63 | 1006.2 |
| 20260505110522 | 18 | 269 | 0.0 | 3.2 | 0.00 | 0.00 | 0.00 | 63 | 1006.3 |
| 20260505102013 | 20 | 269 | 0.0 | 3.2 | 0.00 | 0.00 | 0.00 | 60 | 1006.1 |
| 20260505101513 | 20 | 269 | 0.0 | 4.8 | 0.00 | 0.00 | 0.00 | 60 | 1006.1 |
| 20260505101013 | 20 | 269 | 0.0 | 4.8 | 0.00 | 0.00 | 0.00 | 60 | 1006.2 |
| 20260505100513 | 20 | 193 | 0.0 | 4.8 | 0.00 | 0.00 | 0.00 | 60 | 1006.1 |
| 20260505095513 | 20 | 193 | 0.0 | 3.2 | 0.00 | 0.00 | 0.00 | 60 | 1006.0 |
| 20260505095012 | 20 | 193 | 1.6 | 3.2 | 0.00 | 0.00 | 0.00 | 59 | 1006.0 |
| 20260505094612 | 20 | 193 | 0.0 | 3.2 | 0.00 | 0.00 | 0.00 | 59 | 1006.0 |
| 20260505094012 | 20 | 193 | 1.6 | 4.8 | 0.00 | 0.00 | 0.00 | 60 | 1005.9 |
| 20260505093512 | 20 | 193 | 1.6 | 6.4 | 0.00 | 0.00 | 0.00 | 60 | 1006.0 |
| 20260505093012 | 20 | 193 | 3.2 | 6.4 | 0.00 | 0.00 | 0.00 | 60 | 1005.9 |
| 20260505092512 | 20 | 193 | 0.0 | 3.2 | 0.00 | 0.00 | 0.00 | 60 | 1006.0 |
| 20260505092011 | 20 | 193 | 0.0 | 3.2 | 0.00 | 0.00 | 0.00 | 59 | 1006.0 |
| 20260505091511 | 20 | 193 | 0.0 | 3.2 | 0.00 | 0.00 | 0.00 | 59 | 1006.0 |
| 20260505091011 | 20 | 193 | 0.0 | 3.2 | 0.00 | 0.00 | 0.00 | 59 | 1006.1 |
| 20260505090512 | 20 | 193 | 0.0 | 3.2 | 0.00 | 0.00 | 0.00 | 59 | 1005.9 |
| 20260505085510 | 21 | 193 | 0.0 | 6.4 | 0.00 | 0.00 | 0.00 | 59 | 1006.0 |
| 20260505085011 | 21 | 193 | 3.2 | 9.7 | 0.00 | 0.00 | 0.00 | 59 | 1005.9 |
| 20260505084517 | 21 | 220 | 3.2 | 9.7 | 0.00 | 0.00 | 0.00 | 59 | 1006.0 |
| 20260505084010 | 21 | 212 | 3.2 | 6.4 | 0.00 | 0.00 | 0.00 | 58 | 1006.0 |
| 20260505083510 | 21 | 197 | 3.2 | 6.4 | 0.00 | 0.00 | 0.00 | 58 | 1006.2 |
| 20260505083013 | 21 | 185 | 1.6 | 6.4 | 0.00 | 0.00 | 0.00 | 58 | 1006.2 |
| 20260505082509 | 21 | 166 | 1.6 | 4.8 | 0.00 | 0.00 | 0.00 | 58 | 1006.0 |